Sigfox identifier Datetime Temperature Humidity SNR
003A55AD 2019-04-23 15:06:09 16.3 32 21.2
003A55AD 2019-04-23 14:33:21 16.3 32 20.7
003A55AD 2019-04-23 14:00:34 16.1 31 20.7
003A55AD 2019-04-23 13:27:46 16 31 20.7
003A55AD 2019-04-23 12:54:59 16 31 20.3
003A55AD 2019-04-23 12:22:12 16 31 19.6
003A55AD 2019-04-23 11:49:28 16 31 19.6
003A55AD 2019-04-23 11:16:40 16 31 18.9
003A55AD 2019-04-23 10:43:54 16 31 18.5
003A55AD 2019-04-23 10:11:07 16 31 17.6
003A55AD 2019-04-23 09:38:21 16 31 17.3
003A55AD 2019-04-23 09:05:35 15.9 31 16.7
003A55AD 2019-04-23 08:32:49 15.8 31 15.2
003A55AD 2019-04-23 08:00:03 15.8 31 13.4
003A55AD 2019-04-23 07:27:17 15.9 31 13.2
003A55AD 2019-04-23 06:54:32 15.8 31 13.4
003A55AD 2019-04-23 06:21:43 15.8 31 13.2
003A55AD 2019-04-23 05:48:57 15.8 31 12.8
003A55AD 2019-04-23 05:16:11 15.9 31 12.6
003A55AD 2019-04-23 04:43:23 15.9 31 12.6
003A55AD 2019-04-23 04:10:37 15.8 31 12.7
003A55AD 2019-04-23 03:37:50 15.9 31 12.3
003A55AD 2019-04-23 03:05:08 16 31 12.1
003A55AD 2019-04-23 02:32:19 16 31 11.9
003A55AD 2019-04-23 01:59:34 16 31 11.7
003A55AD 2019-04-23 01:26:49 16 31 12
003A55AD 2019-04-23 00:54:04 16 31 12.3
003A55AD 2019-04-23 00:21:19 16 31 12.3
003A55AD 2019-04-22 23:48:33 16 31 12.4
003A55AD 2019-04-22 23:15:48 16 31 12.5
003A55AD 2019-04-22 22:43:03 16 31 12.7
003A55AD 2019-04-22 22:10:15 16 31 12.8
003A55AD 2019-04-22 21:37:29 16 31 12.7
003A55AD 2019-04-22 21:04:46 16.1 31 12.7
003A55AD 2019-04-22 20:31:56 16.1 31 12.6
003A55AD 2019-04-22 19:59:13 16.1 31 12.8
003A55AD 2019-04-22 19:26:24 16.2 31 13
003A55AD 2019-04-22 18:53:40 16.1 31 13.2
003A55AD 2019-04-22 18:20:54 16.1 31 13.3
003A55AD 2019-04-22 17:48:10 16 31 13.5
003A55AD 2019-04-22 17:15:24 16 31 13.6
003A55AD 2019-04-22 16:09:54 16 31 13.6
003A55AD 2019-04-22 15:37:09 16 31 13.8
003A55AD 2019-04-22 15:04:23 16 31 13.8
003A55AD 2019-04-22 14:31:37 16 30 13.7
003A55AD 2019-04-22 13:58:53 16 30 13.8
003A55AD 2019-04-22 13:26:11 16 30 13.9
003A55AD 2019-04-22 12:53:22 16 30 14.1
003A55AD 2019-04-22 12:20:38 15.9 30 14.2
003A55AD 2019-04-22 11:47:53 16 30 14.2
003A55AD 2019-04-22 11:15:08 15.9 30 14.2
003A55AD 2019-04-22 10:42:23 15.9 30 14.1
003A55AD 2019-04-22 10:09:37 15.8 30 14
003A55AD 2019-04-22 09:36:52 15.9 30 13.9
003A55AD 2019-04-22 09:04:06 15.9 30 13.9
003A55AD 2019-04-22 08:31:20 15.8 30 13.5
003A55AD 2019-04-22 07:58:34 15.9 30 13.5
003A55AD 2019-04-22 07:25:51 15.8 30 13.6
003A55AD 2019-04-22 06:53:04 15.8 30 13.6
003A55AD 2019-04-22 06:20:19 15.8 30 13.7
003A55AD 2019-04-22 05:47:35 15.8 30 13.4
003A55AD 2019-04-22 05:14:50 15.8 30 13.2
003A55AD 2019-04-22 04:42:05 15.8 30 12.9
003A55AD 2019-04-22 04:09:20 15.8 30 12.8
003A55AD 2019-04-22 03:36:35 15.8 30 12.5
003A55AD 2019-04-22 03:03:51 15.8 30 12.2
003A55AD 2019-04-22 02:31:05 15.8 30 12.1
003A55AD 2019-04-22 01:58:20 15.8 30 11.8
003A55AD 2019-04-22 01:25:35 15.8 30 12
003A55AD 2019-04-22 00:52:50 15.8 30 11.8
003A55AD 2019-04-22 00:20:06 15.8 30 11.7
003A55AD 2019-04-21 23:47:21 15.8 30 11.5
003A55AD 2019-04-21 23:14:38 15.8 30 11.8
003A55AD 2019-04-21 22:41:52 15.8 30 11.7
003A55AD 2019-04-21 22:09:07 15.8 30 11.9
003A55AD 2019-04-21 21:36:22 15.7 30 11.8
003A55AD 2019-04-21 21:03:37 15.8 30 11.7
003A55AD 2019-04-21 20:30:53 15.7 30 11.9
003A55AD 2019-04-21 19:58:09 15.7 30 12
003A55AD 2019-04-21 19:25:22 15.7 30 12
003A55AD 2019-04-21 18:52:37 15.7 30 12.3
003A55AD 2019-04-21 18:19:52 15.7 30 12.5
003A55AD 2019-04-21 17:47:06 15.7 30 12.7
003A55AD 2019-04-21 17:14:21 15.7 30 12.8
003A55AD 2019-04-21 16:41:36 15.7 29 12.9
003A55AD 2019-04-21 16:08:51 15.7 29 13.1
003A55AD 2019-04-21 15:36:06 15.7 29 13
003A55AD 2019-04-21 14:30:36 15.7 29 13.2
003A55AD 2019-04-21 13:57:53 15.7 29 13.4
003A55AD 2019-04-21 13:25:07 15.7 29 13.4
003A55AD 2019-04-21 12:19:37 15.8 29 13.5
003A55AD 2019-04-21 11:46:52 15.8 29 13.7
003A55AD 2019-04-21 11:14:08 15.8 29 13.7
003A55AD 2019-04-21 10:41:23 15.8 29 13.5
003A55AD 2019-04-21 10:08:41 15.8 29 13.7
003A55AD 2019-04-21 09:35:55 15.8 29 13.7
003A55AD 2019-04-21 09:03:11 15.9 29 13.7
003A55AD 2019-04-21 07:57:42 15.9 29 13.3
003A55AD 2019-04-21 07:24:58 15.9 29 13.3
003A55AD 2019-04-21 06:52:14 15.9 29 13.1
003A55AD 2019-04-21 06:19:30 15.9 29 13
003A55AD 2019-04-21 05:46:45 15.8 29 12.9
003A55AD 2019-04-21 05:14:00 15.8 29 12.7
003A55AD 2019-04-21 04:41:15 15.8 29 12.7
003A55AD 2019-04-21 04:08:30 15.8 29 12.5
003A55AD 2019-04-21 03:35:45 15.8 29 12.1
003A55AD 2019-04-21 03:02:58 15.8 29 11.9
003A55AD 2019-04-21 02:30:12 15.8 29 11.7
003A55AD 2019-04-21 01:57:26 15.8 29 11.4
003A55AD 2019-04-21 01:24:42 15.8 29 11.3
003A55AD 2019-04-21 00:51:58 15.8 29 11
003A55AD 2019-04-21 00:19:13 15.8 29 11
003A55AD 2019-04-20 23:46:27 15.8 29 10.7
003A55AD 2019-04-20 23:13:43 15.8 29 10.4
003A55AD 2019-04-20 22:41:00 15.8 29 10.8
003A55AD 2019-04-20 22:08:11 15.8 29 10.8
003A55AD 2019-04-20 21:35:24 15.8 29 11.1
003A55AD 2019-04-20 21:02:38 15.8 29 11.5
003A55AD 2019-04-20 20:29:51 15.8 29 11.6
003A55AD 2019-04-20 19:57:04 15.8 29 11.9
003A55AD 2019-04-20 19:24:16 15.8 29 11.8
003A55AD 2019-04-20 18:51:29 15.8 29 12
003A55AD 2019-04-20 18:18:44 15.8 28 12.3
003A55AD 2019-04-20 17:45:58 15.8 28 12.4
003A55AD 2019-04-20 17:13:15 15.8 28 12.6
003A55AD 2019-04-20 16:40:28 15.8 28 12.5
003A55AD 2019-04-20 16:07:44 15.8 28 12.4
003A55AD 2019-04-20 15:34:59 15.8 28 12.5
003A55AD 2019-04-20 15:02:13 15.8 28 12.5
003A55AD 2019-04-20 14:29:28 15.8 28 12.6
003A55AD 2019-04-20 13:56:44 15.8 28 12.7
003A55AD 2019-04-20 12:51:12 15.8 28 12.8
003A55AD 2019-04-20 12:18:26 15.9 28 12.8
003A55AD 2019-04-20 11:45:45 16 28 12.9
003A55AD 2019-04-20 11:12:57 16 28 13.1
003A55AD 2019-04-20 10:40:13 16 28 13.1
003A55AD 2019-04-20 10:07:29 16 28 13.3
003A55AD 2019-04-20 09:02:00 16 28 13.3
003A55AD 2019-04-20 07:23:46 16 28 13.3
003A55AD 2019-04-20 06:50:59 16 28 13.3
003A55AD 2019-04-20 06:18:14 16 28 13.2
003A55AD 2019-04-20 05:45:28 16 28 12.9
003A55AD 2019-04-20 05:12:42 16 28 12.9
003A55AD 2019-04-20 04:39:57 16 28 12.8
003A55AD 2019-04-20 04:07:12 16 28 12.8
003A55AD 2019-04-20 03:34:27 16.1 28 13.1
003A55AD 2019-04-20 03:01:43 16.2 28 12.9
003A55AD 2019-04-20 02:28:56 16.3 28 13
003A55AD 2019-04-20 01:56:10 16.3 28 13
003A55AD 2019-04-20 01:23:24 16.3 28 12.9
003A55AD 2019-04-20 00:50:39 16.3 28 13.3
003A55AD 2019-04-20 00:17:53 16.3 28 13.4
003A55AD 2019-04-19 23:45:07 16.3 28 13.3
003A55AD 2019-04-19 23:12:22 16.3 28 13.2
003A55AD 2019-04-19 22:39:38 16.3 28 13.2
003A55AD 2019-04-19 22:06:53 16.3 28 13.3
003A55AD 2019-04-19 21:34:10 16.4 27 13.1
003A55AD 2019-04-19 21:01:22 16.4 27 13.2
003A55AD 2019-04-19 20:28:36 16.4 27 13.5
003A55AD 2019-04-19 19:55:50 16.5 27 13.5
003A55AD 2019-04-19 19:23:05 16.5 27 13.8
003A55AD 2019-04-19 18:50:20 16.4 27 13.9
003A55AD 2019-04-19 18:17:39 16.4 27 14.1
003A55AD 2019-04-19 17:44:50 16.3 27 14.3
003A55AD 2019-04-19 17:12:08 16.3 27 14.2
003A55AD 2019-04-19 16:39:25 16.3 27 14.2
003A55AD 2019-04-19 16:06:35 16.3 27 14.2
003A55AD 2019-04-19 15:33:48 16.3 27 14.1
003A55AD 2019-04-19 15:01:04 16.3 27 14.1
003A55AD 2019-04-19 14:28:17 16.3 27 13.9
003A55AD 2019-04-19 13:55:32 16.3 27 13.9
003A55AD 2019-04-19 13:22:46 16.3 27 13.9
003A55AD 2019-04-19 12:50:01 16.3 27 13.8
003A55AD 2019-04-19 12:17:16 16.3 27 13.8
003A55AD 2019-04-19 11:44:31 16.3 27 13.7
003A55AD 2019-04-19 11:11:45 16.3 27 13.3
003A55AD 2019-04-19 10:38:59 16.3 27 13.3
003A55AD 2019-04-19 09:00:39 16.3 27 13.5
003A55AD 2019-04-19 08:27:52 16.3 27 15.4
003A55AD 2019-04-19 07:55:07 16.3 27 16.2
003A55AD 2019-04-19 07:22:22 16.3 27 17.4
003A55AD 2019-04-19 06:49:36 16.3 27 17.8
003A55AD 2019-04-19 06:16:51 16.3 26 18.2
003A55AD 2019-04-19 05:44:05 16.3 26 18.4
003A55AD 2019-04-19 05:11:20 16.4 26 19
003A55AD 2019-04-19 04:38:36 16.5 26 19
003A55AD 2019-04-19 04:05:50 16.5 26 19.5
003A55AD 2019-04-19 03:33:06 16.5 26 19.9
003A55AD 2019-04-19 03:00:20 16.5 26 20.3
003A55AD 2019-04-19 02:27:35 16.5 26 20.3
003A55AD 2019-04-19 01:54:50 16.5 26 20.5
003A55AD 2019-04-19 01:22:05 16.7 26 20.8
003A55AD 2019-04-19 00:49:19 16.7 26 20.9
003A55AD 2019-04-19 00:16:33 16.7 26 21.1
003A55AD 2019-04-18 23:43:46 16.7 26 21.2
003A55AD 2019-04-18 23:11:02 16.7 26 21.5
003A55AD 2019-04-18 22:38:13 16.8 26 21.8
003A55AD 2019-04-18 22:05:28 16.9 26 22
003A55AD 2019-04-18 21:32:43 16.8 26 22.2
003A55AD 2019-04-18 21:00:00 16.8 26 22.2
003A55AD 2019-04-18 20:27:14 16.9 26 22.3
003A55AD 2019-04-18 19:54:29 16.9 26 22.3
003A55AD 2019-04-18 19:21:43 16.9 26 22.4
003A55AD 2019-04-18 18:48:59 16.8 26 22
003A55AD 2019-04-18 18:16:14 16.7 26 21.9
003A55AD 2019-04-18 17:43:28 16.7 26 21.5
003A55AD 2019-04-18 17:10:43 16.7 26 21.5
003A55AD 2019-04-18 16:37:58 16.7 26 21.3
003A55AD 2019-04-18 16:05:13 16.7 26 21.1
003A55AD 2019-04-18 15:32:28 16.6 26 20.8
003A55AD 2019-04-18 14:59:42 16.5 26 20.7
003A55AD 2019-04-18 14:26:56 16.5 25 21.7
003A55AD 2019-04-18 13:54:10 16.5 25 21.4
003A55AD 2019-04-18 13:21:25 16.5 25 21.1
003A55AD 2019-04-18 12:48:40 16.5 25 21.2
003A55AD 2019-04-18 12:15:53 16.5 25 21.3
003A55AD 2019-04-18 11:43:06 16.5 25 21.1
003A55AD 2019-04-18 11:10:21 16.5 25 21.2
003A55AD 2019-04-18 10:37:36 16.5 25 21.3
003A55AD 2019-04-18 10:04:51 16.5 25 21.5
003A55AD 2019-04-18 09:32:05 16.5 25 21.3
003A55AD 2019-04-18 08:59:20 16.5 25 21.3
003A55AD 2019-04-18 08:26:32 16.6 25 21.2
003A55AD 2019-04-18 07:53:46 16.6 25 21.3
003A55AD 2019-04-18 07:21:01 16.6 25 21.5
003A55AD 2019-04-18 06:48:13 16.7 25 21.7
003A55AD 2019-04-18 06:15:26 16.7 25 21.8
003A55AD 2019-04-18 05:42:41 16.6 25 21.8
003A55AD 2019-04-18 05:09:57 16.7 25 22.1
003A55AD 2019-04-18 04:37:09 16.7 25 22.3
003A55AD 2019-04-18 04:04:23 16.7 25 22.6
003A55AD 2019-04-18 03:31:37 16.7 25 22.6
003A55AD 2019-04-18 02:58:50 16.9 25 22.6
003A55AD 2019-04-18 02:26:03 16.9 24 22.6
003A55AD 2019-04-18 01:53:17 16.9 24 22.6
003A55AD 2019-04-18 01:20:31 16.9 24 22.7
003A55AD 2019-04-18 00:47:45 17.1 24 21.7
003A55AD 2019-04-18 00:14:59 17.1 24 21.7
003A55AD 2019-04-17 23:42:13 17.1 24 21.9
003A55AD 2019-04-17 23:09:28 17.1 24 22
003A55AD 2019-04-17 22:36:42 17.1 24 21.8
003A55AD 2019-04-17 22:03:56 17.1 24 22.7
003A55AD 2019-04-17 21:31:11 17.1 24 22.7
003A55AD 2019-04-17 20:58:24 17.1 24 22.6
003A55AD 2019-04-17 20:25:37 17.1 24 22.6
003A55AD 2019-04-17 19:52:50 17.1 24 22.7
003A55AD 2019-04-17 19:20:05 17.1 24 22.6
003A55AD 2019-04-17 18:47:18 17.1 24 22.4
003A55AD 2019-04-17 18:14:33 17.1 24 22.4
003A55AD 2019-04-17 17:41:47 17.1 24 22.4
003A55AD 2019-04-17 17:09:00 17.2 24 22.3
003A55AD 2019-04-17 16:36:15 17.3 24 22.4
003A55AD 2019-04-17 16:03:29 17.3 24 22.5
003A55AD 2019-04-17 15:30:43 17.3 24 22.4
003A55AD 2019-04-17 14:57:57 17.4 24 22.3
003A55AD 2019-04-17 14:25:11 17.5 23 22.1
003A55AD 2019-04-17 13:52:25 17.5 23 22.2
003A55AD 2019-04-17 12:46:54 17.5 23 22.3
003A55AD 2019-04-17 12:14:07 17.5 23 22.3
003A55AD 2019-04-17 11:41:20 17.5 23 22.3
003A55AD 2019-04-17 11:08:35 17.5 23 22.2
003A55AD 2019-04-17 10:35:47 17.5 23 22.2
003A55AD 2019-04-17 10:03:03 17.7 23 22.2
003A55AD 2019-04-17 09:30:18 17.8 23 22
003A55AD 2019-04-17 08:57:32 17.8 23 21.8
003A55AD 2019-04-17 08:24:46 18 23 21.8
003A55AD 2019-04-17 07:51:59 18 23 21.8
003A55AD 2019-04-17 07:19:13 18.2 23 21.9
003A55AD 2019-04-17 06:46:24 18.2 23 22
003A55AD 2019-04-17 06:13:36 18.4 23 22.2
003A55AD 2019-04-17 05:40:50 18.4 23 22.1
003A55AD 2019-04-17 05:08:02 18.4 22 21.9
003A55AD 2019-04-17 04:35:15 18.5 22 21.9
003A55AD 2019-04-17 04:02:26 18.6 22 21.7
003A55AD 2019-04-17 03:29:38 18.6 22 21.5
003A55AD 2019-04-17 02:56:51 18.6 22 21.3
003A55AD 2019-04-17 02:24:03 18.8 22 21
003A55AD 2019-04-17 01:51:16 18.8 22 20.9
003A55AD 2019-04-17 01:18:30 18.8 22 20.7
003A55AD 2019-04-17 00:45:44 18.8 22 20.4
003A55AD 2019-04-17 00:12:59 18.9 22 20.1
003A55AD 2019-04-16 23:40:13 19 22 20
003A55AD 2019-04-16 23:07:27 19 22 19.7
003A55AD 2019-04-16 22:34:41 19.2 22 19.7
003A55AD 2019-04-16 22:01:55 19.5 22 19.6
003A55AD 2019-04-16 21:29:08 19.5 22 19.8
003A55AD 2019-04-16 20:56:22 19.7 22 19.8
003A55AD 2019-04-16 20:23:36 19.7 21 19.7
003A55AD 2019-04-16 19:50:49 19.7 21 19.7
003A55AD 2019-04-16 19:18:02 19.9 21 19.7
003A55AD 2019-04-16 18:45:14 19.9 21 19.8
003A55AD 2019-04-16 18:12:30 20.1 21 17.6
003A55AD 2019-04-16 16:34:08 20.5 21 17
003A55AD 2019-04-16 16:01:21 20.7 21 16.7
003A55AD 2019-04-16 15:28:34 20.8 21 15.1
003A55AD 2019-04-16 14:55:46 21 21 13.7
003A55AD 2019-04-16 13:50:10 21.2 21 13.8
003A55AD 2019-04-16 13:17:23 21.2 21 14.2
003A55AD 2019-04-16 12:44:39 21.2 21 14.2
003A55AD 2019-04-16 12:11:46 21.2 21 14.8
003A55AD 2019-04-16 11:39:01 21.2 21 14.8
003A55AD 2019-04-16 11:06:08 21.2 21 15
003A55AD 2019-04-16 10:33:21 21.2 21 15.1
003A55AD 2019-04-16 08:54:54 21.1 21 15.2
003A55AD 2019-04-16 08:22:05 21.2 21 15.1
003A55AD 2019-04-16 07:49:17 21.2 21 15.1
003A55AD 2019-04-16 07:16:26 21.2 21 18.5
003A55AD 2019-04-16 06:43:38 21.2 21 18.6
003A55AD 2019-04-16 06:10:50 21.2 21 18.6
003A55AD 2019-04-16 05:38:01 21.2 21 18.5
003A55AD 2019-04-16 05:05:12 21.2 21 18.5
003A55AD 2019-04-16 04:32:23 21.2 21 18.5
003A55AD 2019-04-16 03:59:36 21.2 21 18.5
003A55AD 2019-04-16 03:26:44 21.2 21 18.5
003A55AD 2019-04-16 02:53:55 21.2 21 18.4
003A55AD 2019-04-16 02:21:11 21.2 21 18.2
003A55AD 2019-04-16 01:48:21 21.2 20 18.8
003A55AD 2019-04-16 01:15:34 21.3 20 19.1
003A55AD 2019-04-16 00:42:46 21.3 20 19.2
003A55AD 2019-04-16 00:09:56 21.3 20 19.8
003A55AD 2019-04-15 23:37:08 21.4 20 20.1
003A55AD 2019-04-15 23:04:20 21.4 20 20.4
003A55AD 2019-04-15 22:31:33 21.4 20 20.9
003A55AD 2019-04-15 21:58:46 21.4 20 21.5
003A55AD 2019-04-15 21:25:58 21.4 20 21.6
003A55AD 2019-04-15 20:53:10 21.4 20 21.7
003A55AD 2019-04-15 20:20:22 21.4 20 22.1
003A55AD 2019-04-15 19:47:33 21.5 19 22.4
003A55AD 2019-04-15 18:42:02 21.6 19 22.6
003A55AD 2019-04-15 18:09:10 21.7 19 21.9
003A55AD 2019-04-15 17:36:23 21.8 19 22.2
003A55AD 2019-04-15 17:03:38 21.8 19 22.5
003A55AD 2019-04-15 16:30:44 21.8 19 22.9
003A55AD 2019-04-15 15:58:00 22 19 23.1
003A55AD 2019-04-15 15:25:11 22 18 23.3
003A55AD 2019-04-15 14:52:24 22.2 18 23.6
003A55AD 2019-04-15 14:19:36 22.2 18 23.9
003A55AD 2019-04-15 13:46:50 22.3 18 24.6
003A55AD 2019-04-15 13:14:03 22.4 17 24.7
003A55AD 2019-04-15 12:41:11 22.5 17 24.9
003A55AD 2019-04-15 12:08:21 22.6 15 24.9
003A55AD 2019-04-15 11:35:31 22.5 15 25
003A55AD 2019-04-15 11:02:44 22.5 16 25.1
003A55AD 2019-04-15 10:29:56 22.5 16 25.1
003A55AD 2019-04-15 09:57:08 22.5 16 25.1
003A55AD 2019-04-15 09:24:19 22.5 17 25
003A55AD 2019-04-15 08:51:31 22.2 16 25
003A55AD 2019-04-15 08:18:43 22.2 16 25
003A55AD 2019-04-15 07:45:55 22.2 16 25
003A55AD 2019-04-15 07:13:06 22 16 25.1
003A55AD 2019-04-15 06:40:16 22.1 17 25.2
003A55AD 2019-04-15 06:07:27 22 17 25.1
003A55AD 2019-04-15 05:34:39 22 17 25.1
003A55AD 2019-04-15 05:01:50 22 17 25.1
003A55AD 2019-04-15 04:29:01 22 17 25.1
003A55AD 2019-04-15 03:56:12 22 17 25
003A55AD 2019-04-15 03:23:24 22 17 25.1
003A55AD 2019-04-15 02:50:35 22 17 24.9
003A55AD 2019-04-15 02:17:45 22 17 24.9
003A55AD 2019-04-15 01:44:54 22 17 24.9
003A55AD 2019-04-15 01:12:05 22 17 24.8
003A55AD 2019-04-15 00:39:15 22 17 24.7
003A55AD 2019-04-15 00:06:25 22 17 24.2
003A55AD 2019-04-14 23:33:36 22 17 24.2
003A55AD 2019-04-14 23:00:46 22 17 24.2
003A55AD 2019-04-14 22:27:56 22 17 24.1
003A55AD 2019-04-14 21:55:05 22.1 18 24.1
003A55AD 2019-04-14 21:22:14 22.2 18 24.2
003A55AD 2019-04-14 20:49:25 22.2 18 24.2
003A55AD 2019-04-14 20:16:38 22.2 18 24.3
003A55AD 2019-04-14 19:43:49 22.2 18 24.4
003A55AD 2019-04-14 19:11:01 22.2 18 24.5
003A55AD 2019-04-14 18:38:11 22.2 18 24.4
003A55AD 2019-04-14 18:05:23 22.2 17 24.4
003A55AD 2019-04-14 17:32:34 22.2 18 24.4
003A55AD 2019-04-14 16:59:45 22.1 17 24.5
003A55AD 2019-04-14 16:26:56 22.1 17 24.5
003A55AD 2019-04-14 15:54:07 22.1 18 24.5
003A55AD 2019-04-14 15:21:19 22 18 24.5
003A55AD 2019-04-14 14:48:30 22.1 18 24.7
003A55AD 2019-04-14 14:15:41 22.1 18 24.7
003A55AD 2019-04-14 13:42:52 22.1 18 24.6
003A55AD 2019-04-14 13:10:04 22.2 18 24.6
003A55AD 2019-04-14 12:37:15 22.2 18 24.6
003A55AD 2019-04-14 12:04:26 22.1 18 24.6
003A55AD 2019-04-14 11:31:38 22.1 18 24.6
003A55AD 2019-04-14 10:58:49 22.1 18 24.7
003A55AD 2019-04-14 10:26:00 22.1 18 24.8
003A55AD 2019-04-14 09:53:11 22.1 18 24.9
003A55AD 2019-04-14 09:20:22 22.1 18 24.9
003A55AD 2019-04-14 08:47:33 22.1 18 25.3
003A55AD 2019-04-14 08:14:43 22.1 18 25.3
003A55AD 2019-04-14 07:41:54 22.1 17 25.5
003A55AD 2019-04-14 07:09:05 22.1 17 25.5
003A55AD 2019-04-14 06:36:16 22.1 17 25.6
003A55AD 2019-04-14 06:03:26 22.1 17 25.6
003A55AD 2019-04-14 05:30:37 22.1 17 25.5
003A55AD 2019-04-14 04:57:49 22.1 17 25.6
003A55AD 2019-04-14 04:25:00 22 17 25.6
003A55AD 2019-04-14 03:52:12 22.2 17 25.6
003A55AD 2019-04-14 03:19:23 22.2 17 25.8
003A55AD 2019-04-14 02:46:34 22.2 17 25.8
003A55AD 2019-04-14 02:13:45 22.2 17 25.9
003A55AD 2019-04-14 01:40:58 22.2 17 26
003A55AD 2019-04-14 01:08:10 22.2 17 25.8
003A55AD 2019-04-14 00:35:21 22.2 17 25.8
003A55AD 2019-04-14 00:02:32 22.2 17 25.9
003A55AD 2019-04-13 23:29:44 22.2 17 25.9
003A55AD 2019-04-13 22:56:54 22.2 17 25.9
003A55AD 2019-04-13 22:24:06 22.2 17 25.9
003A55AD 2019-04-13 21:51:17 22.2 17 25.9
003A55AD 2019-04-13 21:18:28 22.2 17 25.8
003A55AD 2019-04-13 20:45:39 22.2 17 25.8
003A55AD 2019-04-13 20:12:49 22.3 17 25.7
003A55AD 2019-04-13 19:40:01 22.3 17 25.8
003A55AD 2019-04-13 19:07:13 22.4 17 25.4
003A55AD 2019-04-13 18:34:24 22.5 17 25.4
003A55AD 2019-04-13 18:01:36 22.5 17 25
003A55AD 2019-04-13 17:28:48 22.5 17 25
003A55AD 2019-04-13 16:56:00 22.5 17 24.8
003A55AD 2019-04-13 16:23:11 22.5 17 24.9
003A55AD 2019-04-13 15:50:24 22.5 17 24.8
003A55AD 2019-04-13 15:17:35 22.5 17 24.7
003A55AD 2019-04-13 14:44:47 22.5 17 24.8
003A55AD 2019-04-13 14:11:58 22.5 17 24.7
003A55AD 2019-04-13 13:39:09 22.5 17 24.3
003A55AD 2019-04-13 13:06:19 22.5 17 24.2
003A55AD 2019-04-13 12:33:31 22.6 17 24.2
003A55AD 2019-04-13 12:00:41 22.6 17 24
003A55AD 2019-04-13 11:27:53 22.6 17 24
003A55AD 2019-04-13 10:55:03 22.5 17 24.6
003A55AD 2019-04-13 10:22:14 22.5 17 24.6
003A55AD 2019-04-13 09:49:25 22.5 17 24.6
003A55AD 2019-04-13 09:16:37 22.5 17 24.5
003A55AD 2019-04-13 08:43:49 22.5 17 24.6
003A55AD 2019-04-13 08:11:00 22.5 17 24.6
003A55AD 2019-04-13 07:38:11 22.5 17 24.6
003A55AD 2019-04-13 07:05:22 22.5 17 24.5
003A55AD 2019-04-13 06:32:33 22.5 17 24.5
003A55AD 2019-04-13 05:59:43 22.5 17 24.5
003A55AD 2019-04-13 05:26:54 22.5 17 24.4
003A55AD 2019-04-13 04:54:04 22.5 17 24.4
003A55AD 2019-04-13 04:21:14 22.5 17 24.4
003A55AD 2019-04-13 03:48:26 22.6 17 24.9
003A55AD 2019-04-13 03:15:37 22.7 17 24.9
003A55AD 2019-04-13 02:42:46 22.7 17 25
003A55AD 2019-04-13 02:09:57 22.7 17 25
003A55AD 2019-04-13 01:37:08 22.7 17 25.1
003A55AD 2019-04-13 01:04:19 22.7 17 25.1
003A55AD 2019-04-13 00:31:29 22.7 17 25.1
003A55AD 2019-04-12 23:58:39 22.7 18 25.2
003A55AD 2019-04-12 23:25:50 22.9 18 25.2
003A55AD 2019-04-12 22:53:02 22.9 18 25.3
003A55AD 2019-04-12 22:20:12 22.9 18 25.4
003A55AD 2019-04-12 21:47:23 22.9 18 25.5
003A55AD 2019-04-12 21:14:33 23 18 24.9
003A55AD 2019-04-12 20:41:45 23 18 24.9
003A55AD 2019-04-12 20:08:55 23 17 24.8
003A55AD 2019-04-12 19:36:07 22.9 17 25.1
003A55AD 2019-04-12 19:03:18 23 17 25
003A55AD 2019-04-12 18:30:29 23.1 16 25
003A55AD 2019-04-12 17:57:40 23.3 16 25.2
003A55AD 2019-04-12 17:24:50 23.3 17 25.5
003A55AD 2019-04-12 16:52:00 23.3 17 25.7
003A55AD 2019-04-12 16:19:10 23.4 17 25.9
003A55AD 2019-04-12 15:46:20 23.5 18 26.2
003A55AD 2019-04-12 15:13:29 23.3 18 26.6
003A55AD 2019-04-12 14:40:39 23.1 18 27.3
003A55AD 2019-04-12 14:07:49 22.9 19 24.9
003A55AD 2019-04-12 13:34:59 22.5 19 25.1
003A55AD 2019-04-12 13:02:09 21.1 24 0